[[{"header":{"parameterUnit":"m.s-1","parameterCategory":1,"la1":30.2991,"la2":30.254,"lo1":-89.0895,"lo2":-89.0444,"dy":0.0017,"dx":0.0017,"nx":28,"ny":28,"refTime":"2026-03-02T09:00:00:Z","depth":0,"parameterNumber":2,"parameterNumberName":"U-component_of_WINDS"},"data":[0,0,0,0,0,0,0,0,0,0,0,0,0,0,0,0,0,0,0,0,0,0,0,0,0,0,0,0,0,0,0,0,0,0,0,0,0,0,0,0,0,0,0,0,0,0,0,0,0,0,0,0,0,0,0,0,0,0,-3.1538,-3.154,0,-3.1747,-3.1749,-3.1751,-3.1795,-3.1793,-3.1792,-3.179,-3.2,-3.2007,-3.2014,0,0,0,0,0,0,0,0,0,0,0,0,0,-3.1174,-3.118,-3.1537,-3.154,-3.1543,-3.1746,-3.1749,-3.1752,-3.1795,-3.1793,-3.1791,-3.1789,-3.1998,-3.2006,-3.2015,0,0,0,0,0,0,0,0,0,0,0,0,0,-3.1352,-3.1183,-3.1537,-3.1589,-3.1595,-3.1746,-3.1749,-3.1753,-3.1795,-3.1793,-3.1791,-3.1789,-3.1995,-3.2006,-3.2016,-3.2128,0,0,-3.2048,-3.2053,0,0,0,0,0,0,0,0,-3.1342,-3.1365,-3.1578,-3.1585,-3.1593,-3.1742,-3.1698,-3.1879,-3.1796,-3.1719,-3.179,-3.1787,-3.1916,-3.1933,-3.1977,-3.2138,-3.2147,-3.2049,-3.2056,-3.206,-3.2063,0,0,0,0,0,0,0,-3.133,-3.1357,-3.162,-3.1581,-3.1591,-3.1601,-3.1624,-3.1733,-3.1828,-3.1726,-3.1729,-3.1754,-3.192,-3.1967,-3.1983,-3.215,-3.2049,-3.2058,-3.2065,-3.2069,-3.2417,-3.242,0,0,0,0,0,0,-3.1309,-3.1346,-3.1613,-3.1626,-3.1459,-3.161,-3.1635,-3.1697,-3.1827,-3.1845,-3.1756,-3.1755,-3.195,-3.197,-3.199,-3.2132,-3.206,-3.207,-3.2076,-3.2414,-3.2418,-3.2421,0,0,0,0,0,0,-3.1301,-3.1332,-3.1605,-3.1488,-3.1523,-3.1618,-3.1687,-3.1702,-3.175,-3.185,-3.1867,-3.1787,-3.1949,-3.1975,-3.2095,-3.214,-3.2075,-3.2085,-3.2411,-3.2415,-3.2419,-3.2415,0,0,0,0,0,0,-3.129,-3.1329,-3.1372,-3.1488,-3.1529,-3.1706,-3.169,-3.1708,-3.1768,-3.1769,-3.1883,-3.19,-3.1949,-3.2079,-3.2105,-3.2153,-3.2093,-3.2407,-3.2413,-3.2418,-3.2412,-3.2419,-3.2425,0,0,0,0,0,-3.1277,-3.1361,-3.1374,-3.1406,-3.1586,-3.1709,-3.1732,-3.1788,-3.1772,-3.1816,-3.1882,-3.1896,-3.2131,-3.2091,-3.2121,-3.2173,-3.2405,-3.2411,-3.2418,-3.2409,-3.2418,-3.2425,0,0,0,0,0,0,-3.1246,-3.1377,-3.1393,-3.1518,-3.1602,-3.1716,-3.1773,-3.1795,-3.1885,-3.1882,-3.1947,-3.1973,-3.2088,-3.2143,-3.2095,-3.229,-3.2267,-3.228,-3.225,-3.2259,-3.2266,-3.2249,-3.2102,0,0,0,0,0,-3.1254,-3.1343,-3.1453,-3.1552,-3.1594,-3.1677,-3.1732,-3.1769,-3.1858,-3.1893,-3.1967,-3.2052,-3.2146,-3.2206,-3.2297,-3.2421,-3.2447,-3.2472,-3.2478,-3.2483,-3.2493,-3.2565,-3.2577,-3.2442,-3.2442,-3.2442,0,0,-3.127,-3.1353,-3.1405,-3.1548,-3.1618,-3.1709,-3.1706,-3.1802,-3.187,-3.1908,-3.2026,-3.2083,-3.2183,-3.2306,-3.2363,-3.2354,-3.2537,-3.2491,-3.2495,-3.2502,-3.2573,-3.2585,-3.2597,-3.2447,-3.2446,-3.2445,0,0,-3.1347,-3.1419,-3.1511,-3.1582,-3.1688,-3.1743,-3.1765,-3.1877,-3.1918,-3.2038,-3.2068,-3.2151,-3.2309,-3.238,-3.2437,-3.2546,-3.2563,-3.2573,-3.2607,-3.2677,-3.2687,-3.2697,-3.2736,-3.275,-3.2583,-3.2583,-3.2583,0,-3.1354,-3.1493,-3.1554,-3.1651,-3.1713,-3.1754,-3.1848,-3.1914,-3.2044,-3.2086,-3.2075,-3.2278,-3.2347,-3.2488,-3.2515,-3.256,-3.2587,-3.256,-3.2681,-3.2691,-3.2701,-3.274,-3.2754,-3.2584,-3.2584,-3.2584,-3.2584,0,-3.1497,-3.1593,-3.1655,-3.1782,-3.1852,-3.1946,-3.2022,-3.2085,-3.2117,-3.2173,-3.2296,-3.2383,-3.2493,-3.253,-3.256,-3.2676,-3.2668,-3.2668,-3.2646,-3.2714,-3.2751,-3.2766,-3.2585,-3.2585,-3.2584,-3.2584,0,0,-3.1556,-3.172,-3.1741,-3.1801,-3.1924,-3.1999,-3.2096,-3.2207,-3.226,-3.235,-3.2433,-3.2569,-3.2572,-3.2636,-3.2675,-3.2736,-3.2819,-3.273,-3.2733,-3.2743,-3.2953,-3.2951,-3.2967,-3.2832,-3.2835,-3.2838,-3.2945,0,-3.1648,-3.1823,-3.1883,-3.2029,-3.2119,-3.2162,-3.2247,-3.2332,-3.2388,-3.2473,-3.2535,-3.2631,-3.2626,-3.2666,-3.2728,-3.2795,-3.2861,-3.2789,-3.291,-3.2913,-3.2882,-3.2987,-3.2984,-3.3081,-3.296,-3.2962,-3.2964,0,-3.1777,-3.1871,-3.2026,-3.2141,-3.2181,-3.2256,-3.2364,-3.2445,-3.2543,-3.258,-3.2654,-3.269,-3.2794,-3.2768,-3.2912,-3.2861,-3.2915,-3.2956,-3.2961,-3.2973,-3.2941,-3.3001,-3.3113,-3.3127,-3.2987,-3.2985,-3.2984,0,-3.1805,-3.1971,-3.2086,-3.2135,-3.2272,-3.2324,-3.2383,-3.2479,-3.2543,-3.2637,-3.2679,-3.2783,-3.284,-3.292,-3.2984,-3.2959,-3.3123,-3.3102,-3.3157,-3.3155,-3.3188,-3.3184,-3.3309,-3.3223,-3.3223,-3.3223,-3.3223,0,-3.19,-3.1993,-3.2101,-3.2171,-3.2277,-3.2347,-3.245,-3.2512,-3.2597,-3.2681,-3.2724,-3.2801,-3.2881,-3.2969,-3.302,-3.3132,-3.3158,-3.319,-3.3202,-3.3186,-3.3182,-3.3221,-3.3215,-3.3227,-3.3226,-3.3225,-3.3225,0,-3.1948,-3.2024,-3.2152,-3.2273,-3.2305,-3.2378,-3.2481,-3.2552,-3.2612,-3.2717,-3.2746,-3.2839,-3.2946,-3.3018,-3.3153,-3.3188,-3.331,-3.3321,-3.3277,-3.3283,-3.3334,-3.3328,-3.3487,-3.3512,-3.341,-3.3411,-3.3411,0,-3.2003,-3.2077,-3.2206,-3.2266,-3.2326,-3.2422,-3.2488,-3.2561,-3.2628,-3.2747,-3.2803,-3.2913,-3.3004,-3.3172,-3.3252,-3.3357,-3.337,-3.3419,-3.3386,-3.3368,-3.3371,-3.3366,-3.3374,-3.3423,-3.3424,-3.3425,-3.3425,0,-3.2093,-3.2128,-3.2223,-3.2332,-3.2411,-3.2499,-3.2588,-3.2635,-3.2723,-3.2796,-3.2907,-3.2978,-3.3119,-3.3227,-3.334,-3.3401,-3.3428,-3.3436,-3.3454,-3.3437,-3.3409,-3.3425,-3.329,-3.3431,-3.3431,-3.343,-3.343,-3.343,-3.2147,-3.2215,-3.2318,-3.2422,-3.2498,-3.2581,-3.2654,-3.2725,-3.2819,-3.294,-3.2978,-3.3093,-3.3192,-3.3347,-3.341,-3.3501,-3.3497,-3.3523,-3.3529,-3.3534,-3.3535,-3.3396,-3.3522,-3.3522,-3.3522,-3.3522,-3.3522,0,-3.2239,-3.2308,-3.2405,-3.2529,-3.2612,-3.2634,-3.2735,-3.2802,-3.2904,-3.2995,-3.3085,-3.3214,-3.3321,-3.3411,-3.3521,-3.3577,-3.3592,-3.3603,-3.3599,-3.3613,-3.3532,-3.3505,-3.3589,-3.3589,-3.3589,-3.3589,-3.3589,-3.3589,-3.2296,-3.2413,-3.2461,-3.2617,-3.2686,-3.2801,-3.2857,-3.2934,-3.3008,-3.315,-3.3239,-3.3299,-3.339,-3.3508,-3.3607,-3.3631,-3.367,-3.3678,-3.3704,-3.3626,-3.3618,-3.3611,-3.3586,-3.3686,-3.3686,-3.3778,-3.3779,-3.378]},{"header":{"parameterUnit":"m.s-1","parameterCategory":1,"la1":30.2991,"la2":30.254,"lo1":-89.0895,"lo2":-89.0444,"dy":0.0017,"dx":0.0017,"nx":28,"ny":28,"refTime":"2026-03-02T09:00:00:Z","depth":0,"parameterNumber":3,"parameterNumberName":"V-component_of_WINDS"},"data":[0,0,0,0,0,0,0,0,0,0,0,0,0,0,0,0,0,0,0,0,0,0,0,0,0,0,0,0,0,0,0,0,0,0,0,0,0,0,0,0,0,0,0,0,0,0,0,0,0,0,0,0,0,0,0,0,0,0,1.1726,1.1727,0,1.1834,1.1835,1.1836,1.1921,1.1922,1.1923,1.1923,1.2031,1.2033,1.2035,0,0,0,0,0,0,0,0,0,0,0,0,0,1.1593,1.1595,1.1726,1.1727,1.1729,1.1834,1.1835,1.1837,1.1921,1.1922,1.1923,1.1924,1.203,1.2033,1.2035,0,0,0,0,0,0,0,0,0,0,0,0,0,1.167,1.1595,1.1726,1.1783,1.179,1.1833,1.1835,1.1837,1.1921,1.1922,1.1923,1.1924,1.2029,1.2032,1.2036,1.203,0,0,1.2045,1.2047,0,0,0,0,0,0,0,0,1.1666,1.1675,1.1774,1.1779,1.1787,1.1865,1.1828,1.1902,1.192,1.1871,1.1923,1.1925,1.1975,1.1982,1.2,1.2035,1.204,1.2045,1.2047,1.2049,1.205,0,0,0,0,0,0,0,1.166,1.1671,1.1769,1.1775,1.1783,1.1804,1.1816,1.1842,1.1914,1.1875,1.1882,1.1893,1.1978,1.1996,1.2003,1.2041,1.2045,1.2048,1.205,1.2051,1.208,1.2079,0,0,0,0,0,0,1.1646,1.1666,1.1765,1.1772,1.1728,1.1805,1.1819,1.1839,1.1914,1.1927,1.1892,1.1897,1.1991,1.1999,1.2007,1.2007,1.2049,1.2052,1.2053,1.2081,1.208,1.2079,0,0,0,0,0,0,1.1643,1.1654,1.1761,1.1721,1.1736,1.1806,1.1827,1.184,1.1858,1.1927,1.194,1.1897,1.1992,1.2003,1.2025,1.2012,1.2053,1.2056,1.2083,1.2081,1.2079,1.2006,0,0,0,0,0,0,1.1639,1.1653,1.1651,1.172,1.1738,1.1776,1.1827,1.1841,1.1864,1.1871,1.1936,1.1947,1.1994,1.2019,1.2028,1.2017,1.2058,1.2084,1.2082,1.208,1.201,1.2002,1.1995,0,0,0,0,0,1.1634,1.1625,1.165,1.1662,1.1737,1.1775,1.1785,1.184,1.1862,1.1862,1.1907,1.1945,1.2012,1.2021,1.2031,1.2021,1.2085,1.2083,1.208,1.2013,1.2003,1.1995,0,0,0,0,0,0,1.155,1.1635,1.1664,1.1677,1.1719,1.1789,1.179,1.1827,1.1862,1.1867,1.1933,1.1947,1.1962,1.1994,1.2002,1.2021,1.2054,1.2053,1.1999,1.1991,1.1984,1.1975,1.2061,0,0,0,0,0,1.1534,1.1558,1.163,1.1635,1.1654,1.1718,1.1737,1.1776,1.1821,1.1838,1.1885,1.1926,1.1958,1.1976,1.2008,1.2015,1.2031,1.2014,1.2006,1.2,1.1999,1.2007,1.2001,1.2071,1.2071,1.2071,0,0,1.1499,1.1548,1.1559,1.1619,1.1656,1.168,1.1732,1.1755,1.1773,1.1842,1.1866,1.1901,1.1952,1.1968,1.1977,1.1995,1.1983,1.1997,1.1991,1.1994,1.2004,1.1997,1.1991,1.2069,1.2069,1.207,0,0,1.1448,1.1487,1.1497,1.1533,1.1589,1.1632,1.1634,1.1701,1.1727,1.1753,1.1806,1.1829,1.188,1.1915,1.1939,1.1906,1.1943,1.1914,1.1876,1.1883,1.1878,1.1873,1.1862,1.1858,1.1913,1.1912,1.1912,0,1.1397,1.1436,1.1496,1.1517,1.1542,1.1607,1.1618,1.165,1.1712,1.1729,1.1749,1.1817,1.1855,1.1881,1.1873,1.189,1.1896,1.1906,1.1874,1.187,1.1867,1.1857,1.1853,1.1909,1.1909,1.1909,1.191,0,1.1372,1.1398,1.1399,1.146,1.1486,1.1501,1.1564,1.1583,1.162,1.1661,1.1688,1.1737,1.1782,1.1791,1.1826,1.1822,1.1832,1.1862,1.1896,1.1855,1.1847,1.1844,1.1903,1.1904,1.1906,1.1907,0,0,1.1269,1.1366,1.1365,1.1395,1.1463,1.1484,1.1503,1.1548,1.1563,1.1605,1.1623,1.1667,1.1696,1.1724,1.1765,1.1771,1.1743,1.1801,1.1803,1.1789,1.1743,1.172,1.1715,1.1769,1.1769,1.1768,1.1739,0,1.1229,1.1267,1.1323,1.1343,1.1369,1.1433,1.145,1.1493,1.1533,1.1561,1.1605,1.1635,1.1671,1.1689,1.1698,1.1744,1.1735,1.1748,1.1787,1.1787,1.1772,1.1711,1.1686,1.1656,1.1737,1.1736,1.1736,0,1.1187,1.1227,1.125,1.1319,1.1332,1.1345,1.1393,1.1419,1.147,1.1499,1.1532,1.1577,1.1601,1.1632,1.1667,1.1674,1.1694,1.172,1.172,1.1725,1.1758,1.1714,1.1647,1.1643,1.1731,1.1732,1.1732,0,1.111,1.1171,1.1193,1.1216,1.1296,1.1305,1.1339,1.1392,1.1416,1.1458,1.1474,1.1517,1.154,1.1573,1.1629,1.1646,1.1658,1.1694,1.1683,1.1681,1.1681,1.1681,1.1616,1.1694,1.1694,1.1694,1.1694,0,1.106,1.1071,1.116,1.1173,1.1188,1.1254,1.1267,1.1307,1.1354,1.1377,1.1435,1.1454,1.1527,1.1556,1.16,1.1623,1.1633,1.1657,1.1668,1.1652,1.1649,1.1665,1.1668,1.1693,1.1693,1.1694,1.1694,0,1.0976,1.1036,1.1064,1.1139,1.1159,1.1167,1.1231,1.1247,1.1292,1.132,1.133,1.14,1.1437,1.1496,1.155,1.158,1.1595,1.1614,1.1578,1.1585,1.1571,1.1572,1.1515,1.1512,1.1591,1.159,1.1589,0,1.094,1.095,1.1027,1.1048,1.108,1.1111,1.1137,1.1203,1.1227,1.1289,1.1298,1.134,1.1377,1.1434,1.1489,1.1531,1.1552,1.1529,1.1558,1.1542,1.1552,1.1551,1.1553,1.1522,1.1521,1.152,1.1519,0,1.0869,1.0899,1.0934,1.0981,1.1011,1.1051,1.1093,1.1106,1.1182,1.1207,1.1246,1.1275,1.1333,1.1374,1.1425,1.146,1.1502,1.151,1.151,1.1492,1.1471,1.1484,1.156,1.151,1.1511,1.1512,1.1512,1.1513,1.0808,1.0822,1.0879,1.0917,1.0957,1.0996,1.1016,1.1064,1.1099,1.1151,1.1188,1.1225,1.128,1.1353,1.1386,1.1417,1.1435,1.1434,1.1434,1.1433,1.1427,1.1467,1.1426,1.1426,1.1427,1.1427,1.1427,0,1.0741,1.0782,1.0817,1.0876,1.0907,1.0946,1.0996,1.1019,1.1052,1.1099,1.1136,1.1182,1.1224,1.1284,1.133,1.1343,1.1364,1.1353,1.1352,1.136,1.1408,1.1404,1.1336,1.1336,1.1336,1.1336,1.1336,1.1336,1.0709,1.0735,1.0772,1.0819,1.086,1.0898,1.0923,1.096,1.0999,1.1049,1.1084,1.1124,1.1177,1.1228,1.1268,1.1285,1.13,1.1283,1.1305,1.1348,1.1357,1.1365,1.1361,1.1285,1.1285,1.1255,1.1255,1.1255]}]]